Location: Sternwarte auf dem Internationalen Platz Vogelsang IP
(50.5721°N, 6.4398°E)
Time: 22:28:32
(UTC+01:00)

Transit 2A Rocket - Pass Details

Date: 10 December 2025
Orbit: 581 x 903 km, 66.7° (Epoch: 12 January)

Event Time Altitude Azimuth Distance (km) Brightness Sun altitude
Rises 10:26:36 0° 222° (SW) 3,303 8.6 11.8°
Reaches altitude 10° 10:28:57 10° 224° (SW) 2,419 7.9 12.0°
Maximum altitude 10:34:36 74° 310° (NW) 906 5.5 12.4°
Drops below altitude 10° 10:40:37 10° 35° (NE) 2,576 7.5 12.8°
Sets 10:43:12 0° 38° (NE) 3,532 8.2 13.0°
